Date String (YYYY-MM-DD hh:mm:ss) UTC,Instrument flags,absolute air pressure of the measurement (hPa),sample flow rate (lpm),inlet stack bypass flow (lpm),air temperature of the measurement (°C),ambient temperature measured by the external sensor (°C),aerosol sample conditioner tube jacket temperature (°C),OPC LED temperature (°C),internal box temperature (°C),relative humidity of the measurement (%),span deviation,mass concentration of particles derived from Lorenz-Mie calculation of OPC scattering (μg/m³),mass concentration of particles derived from Lorenz-Mie calculation of OPC scattering (μg/m³),mass concentration of particles derived from Lorenz-Mie calculation of OPC scattering (μg/m³)
DateTimeUTC,F1_M11,P_M11,Q1_M11,Q2_M11,T1_M11,T2_M11,T3_M11,T4_M11,T5_M11,U1_M11,ZSPAN_M11,X0_M11,X2_M11,X1_M11
2023-11-28 08:00:00,SystemResetWarning,0831.7,5.00,000.00,018.9,018.0,000.0,027.3,020.0,9.0,0000.0,0001.95,0001.16,0000.94
2023-11-28 08:01:00,SystemResetWarning,0831.7,5.00,000.00,018.9,018.0,000.0,027.3,020.0,9.0,0000.0,0001.87,0001.13,0000.93
2023-11-28 08:02:00,SystemResetWarning,0831.7,5.01,000.00,018.9,018.0,000.0,027.3,020.0,8.9,0000.0,0001.68,0001.13,0000.92
2023-11-28 08:03:00,SystemResetWarning,0831.7,5.01,000.00,018.9,018.0,000.0,027.3,020.0,8.8,0000.0,0001.48,0001.11,0000.91
2023-11-28 08:04:00,SystemResetWarning,0831.7,5.00,000.00,018.9,018.0,000.0,027.3,020.0,9.3,0000.0,0001.44,0001.10,0000.91
2023-11-28 08:05:00,SystemResetWarning,0831.7,5.00,000.00,018.9,018.0,000.0,027.3,020.0,9.0,0000.0,0001.36,0001.07,0000.90
2023-11-28 08:06:00,SystemResetWarning,0831.7,4.99,000.00,018.9,018.0,000.0,027.3,020.0,8.8,0000.0,0001.41,0001.09,0000.90
2023-11-28 08:07:00,SystemResetWarning,0831.7,4.99,000.00,018.9,018.0,000.0,027.3,020.0,8.7,0000.0,0001.50,0001.12,0000.90
2023-11-28 08:08:00,SystemResetWarning,0831.7,5.00,000.00,018.9,018.0,000.0,027.3,020.0,8.7,0000.0,0001.49,0001.11,0000.90
2023-11-28 08:09:00,SystemResetWarning,0831.7,5.01,000.00,018.9,018.0,000.0,027.3,020.0,8.7,0000.0,0001.52,0001.12,0000.90
2023-11-28 08:10:00,SystemResetWarning,0831.7,5.01,000.00,018.9,018.0,000.0,027.3,020.0,8.7,0000.0,0001.47,0001.10,0000.90
2023-11-28 08:11:00,SystemResetWarning,0831.7,5.00,000.00,018.9,018.0,000.0,027.3,020.0,8.8,0000.0,0001.44,0001.09,0000.90
2023-11-28 08:12:00,SystemResetWarning,0831.7,5.00,000.00,018.9,018.0,000.0,027.3,020.0,8.8,0000.0,0001.47,0001.09,0000.90
2023-11-28 08:13:00,SystemResetWarning,0831.7,5.00,000.00,018.8,017.9,000.0,027.2,020.0,8.7,0000.0,0001.46,0001.09,0000.91
2023-11-28 08:14:00,SystemResetWarning,0831.7,5.00,000.00,018.8,017.9,000.0,027.2,020.0,8.8,0000.0,0001.53,0001.13,0000.93
2023-11-28 08:15:00,SystemResetWarning,0831.7,5.00,000.00,018.8,018.0,000.0,027.2,020.0,8.8,0000.0,0001.63,0001.17,0000.94
2023-11-28 08:16:00,SystemResetWarning,0831.7,5.00,000.00,018.8,018.0,000.0,027.2,020.0,8.7,0000.0,0001.62,0001.16,0000.93
2023-11-28 08:17:00,SystemResetWarning,0831.7,5.00,000.00,018.8,018.0,000.0,027.2,020.0,8.7,0000.0,0001.60,0001.16,0000.94
2023-11-28 08:18:00,SystemResetWarning,0831.7,5.00,000.00,018.8,018.0,000.0,027.2,020.0,8.8,0000.0,0001.50,0001.13,0000.94
2023-11-28 08:19:00,SystemResetWarning,0831.7,5.00,000.00,018.8,018.0,000.0,027.2,020.0,8.7,0000.0,0001.49,0001.13,0000.94
2023-11-28 08:20:00,SystemResetWarning,0831.7,5.00,000.00,018.8,018.0,000.0,027.2,020.0,8.6,0000.0,0001.43,0001.10,0000.95
2023-11-28 08:21:00,SystemResetWarning,0831.6,4.99,000.00,018.8,018.0,000.0,027.2,020.0,8.6,0000.0,0001.43,0001.10,0000.95
2023-11-28 08:22:00,SystemResetWarning,0831.6,5.00,000.00,018.8,018.0,000.0,027.2,020.0,8.6,0000.0,0001.46,0001.11,0000.95
2023-11-28 08:23:00,SystemResetWarning,0831.6,5.00,000.00,018.8,018.0,000.0,027.2,020.0,8.5,0000.0,0001.42,0001.10,0000.96
2023-11-28 08:24:00,SystemResetWarning,0831.6,5.00,000.00,018.8,018.0,000.0,027.2,020.0,8.6,0000.0,0001.47,0001.14,0000.98
2023-11-28 08:25:00,SystemResetWarning,0831.6,5.00,000.00,018.8,018.0,000.0,027.2,020.0,8.6,0000.0,0001.57,0001.18,0000.98
2023-11-28 08:26:00,SystemResetWarning,0831.6,4.99,000.00,018.8,018.0,000.0,027.2,020.0,8.6,0000.0,0001.60,0001.20,0000.99
2023-11-28 08:27:00,SystemResetWarning,0831.6,5.00,000.00,018.8,018.0,000.0,027.2,020.0,8.6,0000.0,0001.60,0001.21,0001.00
2023-11-28 08:28:00,SystemResetWarning,0831.6,5.00,000.00,018.8,018.0,000.0,027.2,020.0,8.6,0000.0,0001.66,0001.22,0000.99
2023-11-28 08:29:00,SystemResetWarning,0831.6,4.99,000.00,018.8,017.9,000.0,027.2,020.0,8.5,0000.0,0001.68,0001.23,0000.99
2023-11-28 08:30:00,SystemResetWarning,0831.6,5.00,000.00,018.8,017.9,000.0,027.2,020.0,8.5,0000.0,0001.76,0001.23,0000.98
2023-11-28 08:31:00,SystemResetWarning,0831.6,5.00,000.00,018.8,017.9,000.0,027.2,020.0,8.5,0000.0,0002.00,0001.27,0000.99
2023-11-28 08:32:00,SystemResetWarning,0831.6,5.00,000.00,018.8,017.9,000.0,027.2,020.0,8.6,0000.0,0002.01,0001.26,0000.99
2023-11-28 08:33:00,SystemResetWarning,0831.6,5.00,000.00,018.8,017.9,000.0,027.2,020.0,8.6,0000.0,0002.06,0001.29,0001.00
2023-11-28 08:34:00,SystemResetWarning,0831.5,5.01,000.00,018.8,017.9,000.0,027.2,020.0,8.6,0000.0,0002.06,0001.29,0001.00
2023-11-28 08:35:00,SystemResetWarning,0831.5,5.00,000.00,018.8,017.9,000.0,027.2,020.0,8.6,0000.0,0002.43,0001.27,0000.98
2023-11-28 08:36:00,SystemResetWarning,0831.6,5.00,000.00,018.8,017.9,000.0,027.2,020.0,8.6,0000.0,0003.17,0001.25,0000.98
2023-11-28 08:37:00,SystemResetWarning,0831.5,5.00,000.00,018.8,017.9,000.0,027.2,020.0,8.5,0000.0,0003.08,0001.21,0000.97
2023-11-28 08:38:00,SystemResetWarning,0831.5,5.00,000.00,018.8,017.8,000.0,027.2,020.0,8.6,0000.0,0003.08,0001.20,0000.95
2023-11-28 08:39:00,SystemResetWarning,0831.6,5.00,000.00,018.8,017.8,000.0,027.2,020.0,8.6,0000.0,0002.98,0001.17,0000.94
2023-11-28 08:40:00,SystemResetWarning,0831.5,5.00,000.00,018.8,017.8,000.0,027.2,020.0,8.6,0000.0,0002.93,0001.15,0000.94
2023-11-28 08:41:00,SystemResetWarning,0831.6,5.00,000.00,018.8,017.8,000.0,027.2,020.0,8.6,0000.0,0002.88,0001.15,0000.94
2023-11-28 08:42:00,SystemResetWarning,0831.6,5.00,000.00,018.8,017.8,000.0,027.2,020.0,8.6,0000.0,0002.69,0001.13,0000.93
2023-11-28 08:43:00,SystemResetWarning,0831.6,5.00,000.00,018.8,017.8,000.0,027.2,020.0,8.5,0000.0,0002.66,0001.11,0000.92
2023-11-28 08:44:00,SystemResetWarning,0831.6,5.00,000.00,018.8,017.8,000.0,027.2,020.0,8.5,0000.0,0002.63,0001.10,0000.91
2023-11-28 08:45:00,SystemResetWarning,0831.6,5.00,000.00,018.8,017.8,000.0,027.2,020.0,8.6,0000.0,0002.65,0001.11,0000.90
2023-11-28 08:46:00,SystemResetWarning,0831.6,5.00,000.00,018.8,017.8,000.0,027.2,020.0,8.6,0000.0,0002.32,0001.11,0000.90
2023-11-28 08:47:00,SystemResetWarning,0831.6,5.00,000.00,018.8,017.8,000.0,027.2,020.0,8.7,0000.0,0001.41,0001.07,0000.89
2023-11-28 08:48:00,SystemResetWarning,0831.6,5.00,000.00,018.8,017.9,000.0,027.2,020.0,8.7,0000.0,0001.38,0001.06,0000.90
2023-11-28 08:49:00,SystemResetWarning,0831.6,5.00,000.00,018.8,017.9,000.0,027.2,020.0,8.7,0000.0,0001.36,0001.05,0000.89
2023-11-28 08:50:00,SystemResetWarning,0831.7,5.00,000.00,018.8,017.9,000.0,027.2,020.0,8.6,0000.0,0001.43,0001.08,0000.90
2023-11-28 08:51:00,SystemResetWarning,0831.7,5.00,000.00,018.8,017.9,000.0,027.2,020.0,8.6,0000.0,0001.48,0001.10,0000.89
2023-11-28 08:52:00,SystemResetWarning,0831.7,5.01,000.00,018.8,017.9,000.0,027.2,020.0,9.1,0000.0,0001.46,0001.09,0000.89
2023-11-28 08:53:00,SystemResetWarning,0831.7,5.01,000.00,018.8,018.0,000.0,027.2,020.0,9.2,0000.0,0001.44,0001.08,0000.89
2023-11-28 08:54:00,SystemResetWarning,0831.7,5.00,000.00,018.8,018.0,000.0,027.2,020.0,9.0,0000.0,0001.45,0001.09,0000.89
2023-11-28 08:55:00,SystemResetWarning,0831.7,5.00,000.00,018.8,018.0,000.0,027.2,020.0,9.2,0000.0,0001.45,0001.09,0000.90
2023-11-28 08:56:00,SystemResetWarning,0831.7,5.00,000.00,018.8,018.0,000.0,027.2,020.0,9.1,0000.0,0001.44,0001.08,0000.90
2023-11-28 08:57:00,SystemResetWarning,0831.7,5.00,000.00,018.8,018.0,000.0,027.2,020.0,8.9,0000.0,0001.49,0001.09,0000.89
2023-11-28 08:58:00,SystemResetWarning,0831.7,5.00,000.00,018.8,018.1,000.0,027.2,020.0,8.9,0000.0,0001.51,0001.10,0000.90
2023-11-28 08:59:00,SystemResetWarning,0831.7,5.00,000.00,018.8,018.1,000.0,027.2,020.0,8.8,0000.0,0001.50,0001.09,0000.89
